Appleton, WI

7:13 AM CDT on October 15, 2019 (GMT -0500)
Outagamie County Regional

Weather History for KATW - August, 2019

Change the Weather History Date:

Saturday, August 17, 2019

  Actual Average Record
Temperature  
Mean Temperature 68 °F -  
Max Temperature 78 °F 79 °F 100 °F (1988)
Min Temperature 59 °F 60 °F 47 °F (1963)
Cooling Degree Days 4    
Growing Degree Days 18 (Base 50)    
Moisture  
Dew Point 57 °F    
Average Humidity 65    
Maximum Humidity 100    
Minimum Humidity 34    
Precipitation  
Precipitation 0.00 in - - ()
Sea Level Pressure  
Sea Level Pressure 29.87 in    
Wind  
Wind Speed 5 mph (South)    
Max Wind Speed 9 mph    
Max Gust Speed -    
Visibility 10 miles    
Events      
Averages and records for this station are not official NWS values.
T = Trace of Precipitation, MM = Missing Value Source: NWS Daily Summary

Daily Weather History Graph

Daily Weather History Graph

Search for Another Location

Airport or City:

Astronomy

Aug. 17, 2019 Rise Set
Actual Time 5:59 AM CDT 7:56 PM CDT
Civil Twilight 5:28 AM CDT 8:27 PM CDT
Nautical Twilight 4:49 AM CDT 9:05 PM CDT
Astronomical Twilight 4:07 AM CDT 9:47 PM CDT
Moon 9:20 PM CDT (8/17) 7:50 AM CDT (8/17)
Length of Visible Light 14h 59m
Length of Day
13h 56m
Waning Gibbous, 96% of the Moon is Illuminated
Aug 17
Waning Gibbous
Aug 23
Last Quarter
Aug 30
New
Sep 5
First Quarter
Sep 13
Full

Hourly Weather History & Observations

Time (CDT) Temp. Dew Point Humidity Pressure Visibility Wind Dir Wind Speed Gust Speed Precip Events Conditions
5:20 AM 60.8 °F 60.8 °F 100% 29.79 in 10.0 mi Variable 3.5 mph - N/A   Clear
5:45 AM 59.0 °F 59.0 °F 100% 29.83 in 10.0 mi Variable 3.5 mph - N/A   Clear
6:45 AM 60.8 °F 60.8 °F 100% 29.89 in 10.0 mi Variable 3.5 mph - N/A   Scattered Clouds
7:45 AM 64.4 °F 62.6 °F 94% 29.90 in 10.0 mi West 9.2 mph - N/A   Scattered Clouds
8:45 AM 66.2 °F 64.4 °F 94% 29.90 in 10.0 mi West 6.9 mph - N/A   Scattered Clouds
9:45 AM 71.6 °F 59.0 °F 64% 29.90 in 10.0 mi West 3.5 mph - N/A   Mostly Cloudy
10:45 AM 73.4 °F 60.8 °F 65% 29.91 in 10.0 mi SSW 4.6 mph - N/A   Mostly Cloudy
11:45 AM 75.2 °F 55.4 °F 50% 29.90 in 10.0 mi SSW 6.9 mph - N/A   Mostly Cloudy
12:45 PM 75.2 °F 57.2 °F 53% 29.89 in 10.0 mi Calm Calm - N/A   Mostly Cloudy
1:45 PM 77.0 °F 55.4 °F 47% 29.89 in 10.0 mi SW 5.8 mph - N/A   Mostly Cloudy
2:45 PM 78.8 °F 55.4 °F 44% 29.87 in 10.0 mi Variable 4.6 mph - N/A   Mostly Cloudy
3:45 PM 77.0 °F 55.4 °F 47% 29.85 in 10.0 mi Variable 4.6 mph - N/A   Mostly Cloudy
4:45 PM 78.8 °F 53.6 °F 42% 29.86 in 10.0 mi Calm Calm - N/A   Mostly Cloudy
5:45 PM 78.8 °F 48.2 °F 34% 29.86 in 10.0 mi SSE 8.1 mph - N/A   Scattered Clouds
6:45 PM 77.0 °F 53.6 °F 44% 29.84 in 10.0 mi SSE 5.8 mph - N/A   Scattered Clouds
7:45 PM 73.4 °F 57.2 °F 57% 29.84 in 10.0 mi SE 9.2 mph - N/A   Scattered Clouds
8:45 PM 71.6 °F 57.2 °F 60% 29.84 in 10.0 mi SE 6.9 mph - N/A   Scattered Clouds
9:45 PM 68.0 °F 57.2 °F 68% 29.84 in 10.0 mi SE 5.8 mph - N/A   Scattered Clouds
10:45 PM 68.0 °F 59.0 °F 73% 29.85 in 10.0 mi SE 4.6 mph - N/A   Scattered Clouds